Change the Weather History Date:

Thursday, June 13, 2013

  Actual Average Record
Temperature  
Mean Temperature 73 °F 72 °F  
Max Temperature 82 °F 83 °F 96 °F (1943)
Min Temperature 64 °F 62 °F 42 °F (1903)
Degree Days  
Heating Degree Days 0 0  
Month to date heating degree days 0 8  
Since 1 June heating degree days 0 8  
Since 1 July heating degree days 4667 4608  
Cooling Degree Days 8 8  
Month to date cooling degree days 95 81  
Year to date cooling degree days 248 188  
Since 1 June cooling degree days 95 81  
Growing Degree Days 24 (Base 50)    
Moisture  
Dew Point 66 °F    
Average Humidity 67    
Maximum Humidity 79    
Minimum Humidity 54    
Precipitation  
Precipitation 0.84 in 0.15 in 1.51 in (1946)
Month to date precipitation 2.66 2.09  
Year to date precipitation 24.52 21.42  
Snow  
Snow 0.00 in 0.00 in - ()
Month to date snowfall 0.0 0.0  
Since 1 June snowfall 0.0 0.0  
Since 1 July snowfall 12.5 13.0  
Snow Depth 0.00 in    
Sea Level Pressure  
Sea Level Pressure 29.78 in    
Wind  
Wind Speed 12 mph (WNW)    
Max Wind Speed 33 mph    
Max Gust Speed 43 mph    
Visibility 9 miles    
Events Fog , Rain    
T = Trace of Precipitation, MM = Missing Value Source: NWS Daily Summary

Daily Weather History Graph

Daily Weather History Graph

Search for Another Location

Airport or City:

Trip Planner

Search our weather history database for the weather conditions in past years. The results will help you decide how hot, cold, wet, or windy it might be!

Date:

Astronomy

Jun. 13, 2013 Rise Set
Actual Time 6:15 AM EDT 9:02 PM EDT
Civil Twilight 5:43 AM EDT 9:33 PM EDT
Nautical Twilight 5:04 AM EDT 10:12 PM EDT
Astronomical Twilight 4:19 AM EDT 10:57 PM EDT
Moon 10:47 AM EDT (6/13) No Moon Set
Length of Visible Light 15h 49m
Length of Day
14h 47m
Waxing Crescent, 21% of the Moon is Illuminated
Jun 13
Waxing Crescent
Jun 16
First Quarter
Jun 23
Full
Jun 30
Last Quarter
Jul 8
New

Hourly Weather History & Observations

Time (EDT) Temp. Heat Index Dew Point Humidity Pressure Visibility Wind Dir Wind Speed Gust Speed Precip Events Conditions
12:54 AM 82.0 °F 85.9 °F 70.0 °F 67% 29.81 in 10.0 mi SW 18.4 mph 26.5 mph N/A   Scattered Clouds
1:54 AM 82.0 °F 85.9 °F 70.0 °F 67% 29.78 in 10.0 mi SW 17.3 mph 28.8 mph N/A   Mostly Cloudy
2:54 AM 81.0 °F 84.9 °F 71.1 °F 72% 29.76 in 10.0 mi SW 16.1 mph 26.5 mph N/A   Clear
3:54 AM 80.1 °F 83.6 °F 71.1 °F 74% 29.74 in 10.0 mi SW 17.3 mph 26.5 mph N/A   Partly Cloudy
4:54 AM 80.1 °F 83.6 °F 71.1 °F 74% 29.72 in 10.0 mi SW 16.1 mph 26.5 mph N/A   Mostly Cloudy
5:54 AM 79.0 °F - 71.1 °F 77% 29.72 in 10.0 mi SW 13.8 mph 23.0 mph N/A   Mostly Cloudy
6:54 AM 79.0 °F - 71.1 °F 77% 29.72 in 10.0 mi SW 11.5 mph - N/A   Mostly Cloudy
7:54 AM 79.0 °F - 71.1 °F 77% 29.71 in 10.0 mi SW 16.1 mph - N/A   Scattered Clouds
8:54 AM 80.1 °F 83.8 °F 72.0 °F 76% 29.69 in 10.0 mi SW 15.0 mph 24.2 mph N/A   Overcast
9:21 AM 80.6 °F 84.6 °F 71.6 °F 74% 29.72 in 10.0 mi SW 12.7 mph 27.6 mph N/A   Overcast
9:54 AM 80.1 °F 83.6 °F 71.1 °F 74% 29.68 in 10.0 mi SW 18.4 mph 26.5 mph N/A   Overcast
10:39 AM 78.8 °F - 71.6 °F 78% 29.74 in 1.8 mi WNW 18.4 mph 25.3 mph 0.03 in Rain Heavy Rain
10:43 AM 73.4 °F - 69.8 °F 88% 29.77 in 0.2 mi NW 31.1 mph 42.6 mph 0.08 in Fog , Rain Heavy Rain
10:49 AM 69.8 °F - 66.2 °F 88% 29.75 in 1.0 mi NNW 21.9 mph 42.6 mph 0.41 in Rain Heavy Rain
10:54 AM 69.1 °F - 66.0 °F 90% 29.72 in 1.0 mi NW 21.9 mph 35.7 mph 0.72 in Rain Heavy Rain
11:01 AM 69.8 °F - 66.2 °F 88% 29.76 in 2.0 mi NW 12.7 mph 27.6 mph 0.12 in Rain Light Rain
11:09 AM 69.8 °F - 66.2 °F 88% 29.77 in 10.0 mi NW 8.1 mph - 0.12 in Rain Light Rain
11:18 AM 69.8 °F - 66.2 °F 88% 29.78 in 10.0 mi WNW 5.8 mph - 0.12 in   Overcast
11:54 AM 71.1 °F - 66.9 °F 87% 29.75 in 10.0 mi WNW 8.1 mph - 0.12 in   Partly Cloudy
12:54 PM 75.0 °F - 68.0 °F 79% 29.76 in 10.0 mi NNW 15.0 mph 20.7 mph N/A   Overcast
1:02 PM 75.2 °F - 68.0 °F 78% 29.79 in 10.0 mi NW 16.1 mph 23.0 mph N/A   Mostly Cloudy
1:20 PM 75.2 °F - 66.2 °F 73% 29.79 in 10.0 mi NW 16.1 mph 23.0 mph N/A   Overcast
1:39 PM 75.2 °F - 64.4 °F 69% 29.81 in 10.0 mi NW 16.1 mph 23.0 mph 0.00 in Rain Light Rain
1:54 PM 75.0 °F - 66.0 °F 73% 29.79 in 10.0 mi NNW 12.7 mph 18.4 mph 0.00 in   Overcast
2:54 PM 75.9 °F - 66.0 °F 71% 29.80 in 10.0 mi WNW 10.4 mph 21.9 mph N/A   Overcast
3:54 PM 75.9 °F - 66.0 °F 71% 29.82 in 10.0 mi NNW 8.1 mph - N/A   Overcast
4:54 PM 73.9 °F - 64.0 °F 71% 29.83 in 10.0 mi NNW 11.5 mph 20.7 mph 0.00 in   Overcast
5:54 PM 77.0 °F - 63.0 °F 62% 29.84 in 10.0 mi North 12.7 mph 20.7 mph N/A   Mostly Cloudy
6:54 PM 75.9 °F - 57.0 °F 52% 29.85 in 10.0 mi NNW 17.3 mph 25.3 mph N/A   Partly Cloudy
7:54 PM 73.9 °F - 57.9 °F 57% 29.86 in 10.0 mi NNW 6.9 mph - N/A   Clear
8:54 PM 71.1 °F - 57.9 °F 63% 29.87 in 10.0 mi NNW 3.5 mph - N/A   Clear
9:54 PM 68.0 °F - 59.0 °F 73% 29.89 in 10.0 mi WNW 3.5 mph - N/A   Clear
10:54 PM 66.9 °F - 57.9 °F 73% 29.93 in 10.0 mi NW 5.8 mph - N/A   Clear
11:54 PM 66.0 °F - 55.9 °F 70% 29.94 in 10.0 mi NW 8.1 mph - N/A   Clear